Regional Weather Roundup
Issued by NWS

Home | Current Version | Previous Version | Text Only | Print | Product List | Glossary On
Versions: 1 2 3 4 5 6 7 8 9 10 11 12 13 14 15 16 17 18 19 20 21 22 23 24 25 26 27 28 29 30 31 32 33 34 35 36 37 38 39 40 41 42 43 44 45 46 47 48 49 50
000
ASUS42 KFFC 060203
RWRGA
WEATHER ROUNDUP FOR GEORGIA
NATIONAL WEATHER SERVICE PEACHTREE CITY GA
1000 PM EDT TUE MAY 05 2015

NOTE: "FAIR" INDICATES FEW OR NO CLOUDS BELOW 12,000 FEET WITH NO
SIGNIFICANT WEATHER AND/OR OBSTRUCTIONS TO VISIBILITY.

* = USE WITH CAUTION. THE STATIONS MARKED WITH AN ASTERISK MAY NOT
REPORT WEATHER SUCH AS PRECIPITATION, FOG, OR THUNDER AND ARE NOT
QUALITY CONTROLLED BY NWS.

THE REMARK "TC" DENOTES TEMPERATURE READING IN DEGREES CELSIUS.

GAZ001>058-060300-
NORTH GEORGIA

CITY           SKY/WX    TMP DP  RH WIND       PRES   REMARKS
ATLANTA        PTCLDY    73  51  46 SE5       30.23R
ATHENS         CLEAR     64  57  78 CALM      30.24R
CHAMBLEE       CLEAR     67  52  58 E3        30.24R
PEACHTREE CITY CLEAR     61  56  83 CALM      30.23R
ROME           MOCLDY    66  59  78 CALM      30.21R
WEST ATLANTA   CLEAR     65  54  67 CALM      30.23R
GAINESVILLE    CLEAR     68  51  54 CALM      30.27R
CARTERSVILLE   CLEAR     59  54  83 CALM      30.23R


CITY           SKY/WX    TMP DP  RH WIND       PRES   REMARKS
DALTON*        PTCLDY    68  61  77 CALM      30.21S
MARIETTA       CLEAR     69  53  56 E2        30.23R
KENNESAW*      CLEAR     70  52  52 SE6       30.24R
BLAIRSVILLE*     N/A     62  35  36 CALM      30.29R
$$

GAZ059>098-102>109-060300-
CENTRAL GEORGIA

CITY           SKY/WX    TMP DP  RH WIND       PRES   REMARKS
AUGUSTA-BUSH   PTCLDY    60  54  80 S5        30.23R
AUGUSTA-DANIEL PTCLDY    73  50  44 E5        30.24R
COLUMBUS       CLEAR     71  51  49 E3        30.19R
MACON          CLEAR     64  56  75 CALM      30.21R
ROBINS AFB     CLEAR     64  57  78 CALM      30.21R


CITY           SKY/WX    TMP DP  RH WIND       PRES   REMARKS
LAGRANGE*      CLEAR     62  58  85 CALM      30.21S
SYLVANIA*      MOCLDY    67  59  75 CALM      30.25R
MILLEDGEVILLE* CLEAR     63  57  82 CALM      30.22S
$$

GAZ099>101-110>166-060300-
SOUTH GEORGIA

CITY           SKY/WX    TMP DP  RH WIND       PRES   REMARKS
SAVANNAH       CLOUDY    68  58  70 E6        30.23S
VALDOSTA       PTCLDY    71  59  65 E3        30.19R
ALMA           MOCLDY    69  58  67 E7        30.22R
ST SIMONS      CLOUDY    70  64  81 NE13G20   30.20S
FT STEWART     CLOUDY    69  60  72 NE3       30.21R
ALBANY         CLOUDY    74  57  55 E6        30.20R
HUNTER AFB     CLOUDY    70  63  78 E6        30.21R
MOODY AFB      PTCLDY    70  58  67 E9        30.18R
BRUNSWICK      CLOUDY    70  63  78 NE6       30.21S


CITY           SKY/WX    TMP DP  RH WIND       PRES   REMARKS
BAINBRIDGE*    PTCLDY    77  63  61 SE5       30.18R
MOULTRIE*      CLOUDY    73  59  60 CALM      30.19R
VIDALIA*       MOCLDY    68  59  73 SE6       30.23R
WAYCROSS*      MOCLDY    71  63  76 E5        30.21R
DOUGLAS*       MOCLDY    72  59  64 E8        30.23R
$$


USA.gov is the U.S. government's official web portal to all federal, state and local government web resources and services.